EW5009 Weather Reports


Display with metric or nautical units.
time (UTC)temp
F
wind
direction
speed
MPH
gust
MPH
rain 1hr
in
rain 24hr
in
rain mn
in
humidity
%
barometer
mb
20171217000537 34 248 7.0 13.0 0.00 0.00 0.00 74 1021.0
20171216235042 34 262 5.0 15.0 0.00 0.00 0.00 74 1020.9
20171216233601 34 255 8.0 16.0 0.00 0.00 0.00 74 1021.0
20171216232043 34 263 6.0 16.0 0.00 0.00 0.00 74 1020.8
20171216230609 34 248 8.0 14.0 0.00 0.00 0.00 74 1020.5
20171216225031 34 247 8.0 14.0 0.00 0.00 0.00 74 1020.3
20171216223527 35 252 5.0 13.0 0.00 0.00 0.00 73 1020.2
20171216222035 35 250 7.0 13.0 0.00 0.00 0.00 72 1020.0
20171216220524 35 247 7.0 14.0 0.00 0.00 0.00 71 1019.8
20171216215023 36 255 8.0 16.0 0.00 0.00 0.00 72 1019.7
20171216213533 36 232 11.0 21.0 0.00 0.00 0.00 71 1019.4
20171216212045 36 214 7.0 18.0 0.00 0.00 0.00 71 1019.1
20171216210549 36 222 11.0 21.0 0.00 0.00 0.00 71 1019.1
20171216205020 36 219 12.0 22.0 0.00 0.00 0.00 71 1019.1
20171216203532 36 239 10.0 20.0 0.00 0.00 0.00 72 1018.9
20171216202022 36 213 8.0 19.0 0.00 0.00 0.00 71 1018.9
20171216200516 36 254 12.0 22.0 0.00 0.00 0.00 72 1018.8
20171216195041 36 232 10.0 17.0 0.00 0.00 0.00 72 1018.8
20171216193532 36 269 13.0 25.0 0.00 0.00 0.00 72 1018.7
20171216192013 35 250 12.0 21.0 0.00 0.00 0.00 74 1018.9
20171216190530 35 248 15.0 26.0 0.00 0.00 0.00 73 1019.0
20171216185010 35 218 16.0 25.0 0.00 0.00 0.00 74 1019.1
20171216183525 35 257 8.0 27.0 0.00 0.00 0.00 73 1019.2
20171216182013 35 236 13.0 21.0 0.00 0.00 0.00 75 1019.3
20171216180543 36 248 15.0 23.0 0.00 0.00 0.00 74 1019.2
20171216175020 35 250 14.0 27.0 0.00 0.00 0.00 76 1019.1
20171216173539 34 247 11.0 25.0 0.00 0.00 0.00 77 1019.4
20171216172108 33 245 12.0 27.0 0.00 0.00 0.00 78 1019.1
20171216170615 33 238 15.0 25.0 0.00 0.00 0.00 80 1019.4
20171216165058 32 244 13.0 21.0 0.00 0.00 0.00 79 1019.5
20171216163455 32 257 12.0 25.0 0.00 0.00 0.00 80 1019.7
20171216162005 32 239 12.0 21.0 0.00 0.00 0.00 78 1019.8
20171216160445 31 269 13.0 25.0 0.00 0.00 0.00 77 1020.0
20171216155053 31 236 10.0 24.0 0.00 0.00 0.00 76 1020.1
20171216153444 31 250 15.0 26.0 0.00 0.00 0.00 76 1019.9
20171216151944 31 238 10.0 22.0 0.00 0.00 0.00 76 1019.9
20171216150437 30 259 13.0 25.0 0.00 0.00 0.00 77 1020.0
20171216144945 30 248 14.0 23.0 0.00 0.00 0.00 79 1019.8
20171216143450 29 248 12.0 25.0 0.00 0.00 0.00 80 1019.9
20171216142022 28 246 13.0 25.0 0.00 0.00 0.00 82 1019.9
20171216140428 28 217 13.0 20.0 0.00 0.00 0.00 82 1020.1
20171216134936 27 259 12.0 23.0 0.00 0.00 0.00 83 1019.7
20171216133430 27 260 13.0 21.0 0.00 0.00 0.00 83 1019.5
20171216131927 26 252 14.0 18.0 0.00 0.00 0.00 84 1019.6
20171216130420 26 250 10.0 22.0 0.00 0.00 0.00 84 1019.7
20171216124920 26 278 14.0 20.0 0.00 0.00 0.00 84 1019.6
20171216123511 26 258 12.0 23.0 0.00 0.00 0.00 84 1019.4
20171216121930 26 252 16.0 27.0 0.00 0.00 0.00 84 1019.5
20171216120457 26 230 13.0 23.0 0.00 0.00 0.00 86 1019.3
20171216114934 25 259 16.0 23.0 0.00 0.00 0.00 86 1019.2
20171216113432 25 255 14.0 26.0 0.00 0.00 0.00 86 1019.0
20171216112105 25 227 18.0 29.0 0.00 0.00 0.00 86 1018.9
20171216110510 25 270 17.0 28.0 0.00 0.00 0.00 86 1018.7
20171216105004 24 262 13.0 26.0 0.00 0.00 0.00 86 1018.6
20171216103418 24 269 14.0 27.0 0.00 0.00 0.00 86 1018.7
20171216101907 24 259 16.0 27.0 0.00 0.00 0.00 85 1018.3
20171216100500 24 225 12.0 27.0 0.00 0.00 0.00 85 1018.0
20171216094927 23 222 12.0 25.0 0.00 0.00 0.00 84 1018.2
20171216093402 23 271 14.0 25.0 0.00 0.00 0.00 83 1018.3
20171216091900 23 249 12.0 23.0 0.00 0.00 0.00 81 1018.2
20171216090421 23 232 14.0 22.0 0.00 0.00 0.00 81 1018.3
20171216084857 23 207 14.0 20.0 0.00 0.00 0.00 79 1018.4
20171216083357 23 279 10.0 25.0 0.00 0.00 0.00 79 1018.4
20171216082012 23 251 13.0 24.0 0.00 0.00 0.00 79 1018.4
20171216080505 23 251 12.0 20.0 0.00 0.00 0.00 79 1018.4
20171216074912 23 248 16.0 26.0 0.00 0.00 0.00 80 1018.4
20171216073502 23 265 14.0 24.0 0.00 0.00 0.00 81 1018.3
20171216071956 23 248 12.0 25.0 0.00 0.00 0.00 81 1018.4
20171216070450 23 247 14.0 27.0 0.00 0.00 0.00 79 1018.4
20171216064854 24 221 8.0 22.0 0.00 0.00 0.00 79 1018.3
20171216063420 24 250 14.0 24.0 0.00 0.00 0.00 78 1018.4
20171216061914 24 260 13.0 27.0 0.00 0.00 0.00 78 1018.3
20171216060355 24 291 9.0 25.0 0.00 0.00 0.00 80 1018.3
20171216054857 24 279 11.0 27.0 0.00 0.00 0.00 82 1018.2
20171216053357 23 247 11.0 23.0 0.00 0.00 0.00 83 1018.1
20171216051839 23 289 12.0 25.0 0.00 0.00 0.00 84 1017.9
20171216050335 24 259 12.0 31.0 0.00 0.00 0.00 84 1017.7
20171216044841 24 247 11.0 25.0 0.00 0.00 0.00 85 1017.6
20171216043330 24 248 11.0 21.0 0.00 0.00 0.00 83 1017.4
20171216041824 24 252 10.0 21.0 0.00 0.00 0.00 82 1017.3
20171216040345 24 208 8.0 19.0 0.00 0.00 0.00 83 1017.1
20171216034828 24 258 9.0 18.0 0.00 0.00 0.00 83 1016.8
20171216033325 24 254 10.0 24.0 0.00 0.00 0.00 83 1016.7
20171216032100 24 236 12.0 20.0 0.00 0.00 0.00 82 1016.6
20171216030319 24 246 14.0 23.0 0.00 0.00 0.00 82 1016.6
20171216024853 24 245 10.0 24.0 0.00 0.00 0.00 83 1016.5
20171216023416 24 263 10.0 25.0 0.00 0.00 0.00 83 1016.5
20171216021832 24 248 10.0 20.0 0.00 0.00 0.00 83 1016.3
20171216020336 24 260 12.0 21.0 0.00 0.00 0.00 82 1016.4
20171216014845 23 246 10.0 17.0 0.00 0.00 0.00 82 1016.3
20171216013316 23 277 9.0 22.0 0.00 0.00 0.00 82 1016.2
20171216011830 23 252 11.0 22.0 0.00 0.00 0.00 82 1016.0
20171216010342 23 261 11.0 19.0 0.00 0.00 0.00 81 1016.1
20171216004836 23 207 12.0 18.0 0.00 0.00 0.00 82 1015.9
20171216003312 23 259 9.0 24.0 0.00 0.00 0.00 82 1015.6
20171216001821 23 231 11.0 19.0 0.00 0.00 0.00 83 1015.5